Tracking 19854 objects as of 23-Sep-2019
HD Live streaming from Space Station
objects crossing your sky now

SL-14 DEB

Track SL-14 DEB now!
10-day predictions


NORAD ID: 25221
Int'l Code: 1987-068AY
Perigee: 939.9 km
Apogee: 1,189.9 km
Inclination: 82.3 °
Period: 106.4 minutes
Semi major axis: 7435 km
RCS: 0.077 m2 (small)
Launch date: August 18, 1987
Source: Commonwealth of Independent States (former USSR) (CIS)
Launch site: PLESETSK MISSILE AND SPACE COMPLEX (PKMTR)

Note: This is SATELLITE DEBRIS
aabbcc
Your satellite tracking list
Your tracking list is empty




NASA's NSSDC Master Catalog

Two Line Element Set (TLE):
1 25221U 87068AY  19264.89289889  .00000015  00000-0 -25238-6 0  9997
2 25221  82.2993 216.3929 0168089 116.9215 298.0860 13.53956229 65500
Source of the keplerian elements: AFSPC